FDX7 HKJK-LIMC

Flight info

Callsign FDX7
Flight time 7h 21m
Altitude 32000
Route ANTUK2D NAKAT UL433 NN UW325 SIPKI UT325 GOVEL UM215 ARBEG UG655 KILGU/N0493F340 UG655 ILDOR UM214 GARIN M214 SEB M740 SARKI/N0501F300 M726 MADIR/N0481F340 DCT GIANO DCT POKAV DCT GILIO DCT SPEZI DCT IDONA DCT MEBUR
Aircraft B77L/H-SDE1E2E3FGHIJ2J3J4J5M1RWXY/LB1D1

Departure

Time 2026-05-06 11:40
Airport Jomo Kenyatta International Airport (HKJK)

Arrival

Time 2026-05-06 19:01
Airport Milan Malpensa International Airport (LIMC)
Time Latitude Longitude Altitude Speed Heading
2026-05-06 11:14 -1.33527 36.91357 5329 ft 0 kts 143°
2026-05-06 11:14 -1.33526 36.91357 5329 ft 0 kts 143°
2026-05-06 11:14 -1.33527 36.91357 5329 ft 0 kts 143°
2026-05-06 11:15 -1.33526 36.91357 5329 ft 0 kts 143°
2026-05-06 11:29 -1.33522 36.91354 5328 ft 4 kts 143°
2026-05-06 11:29 -1.33500 36.91338 5334 ft 4 kts 143°
2026-05-06 11:29 -1.33479 36.91322 5334 ft 3 kts 143°
2026-05-06 11:30 -1.33462 36.91308 5334 ft 4 kts 118°
2026-05-06 11:30 -1.33458 36.91292 5334 ft 4 kts 67°
2026-05-06 11:30 -1.33472 36.91270 5334 ft 4 kts 53°
2026-05-06 11:30 -1.33475 36.91265 5334 ft 0 kts 54°
2026-05-06 11:33 -1.33473 36.91269 5334 ft 4 kts 54°
2026-05-06 11:34 -1.33453 36.91296 5334 ft 5 kts 54°
2026-05-06 11:34 -1.33433 36.91323 5335 ft 5 kts 54°
2026-05-06 11:34 -1.33403 36.91365 5334 ft 12 kts 54°
2026-05-06 11:34 -1.33345 36.91445 5333 ft 14 kts 53°
2026-05-06 11:35 -1.33286 36.91524 5334 ft 14 kts 53°
2026-05-06 11:35 -1.33228 36.91603 5335 ft 14 kts 50°
2026-05-06 11:35 -1.33153 36.91667 5334 ft 14 kts 39°
2026-05-06 11:35 -1.33090 36.91742 5332 ft 14 kts 54°
2026-05-06 11:36 -1.33032 36.91811 5340 ft 10 kts 31°
2026-05-06 11:36 -1.32969 36.91797 5346 ft 10 kts 328°
2026-05-06 11:36 -1.32913 36.91759 5346 ft 10 kts 325°
2026-05-06 11:36 -1.32857 36.91720 5344 ft 10 kts 324°
2026-05-06 11:37 -1.32803 36.91680 5344 ft 10 kts 324°
2026-05-06 11:37 -1.32741 36.91669 5345 ft 10 kts 28°
2026-05-06 11:37 -1.32710 36.91704 5343 ft 0 kts 53°
2026-05-06 11:39 -1.32709 36.91706 5340 ft 2 kts 53°
2026-05-06 11:39 -1.32651 36.91785 5341 ft 27 kts 53°
2026-05-06 11:39 -1.32413 36.92108 5318 ft 95 kts 53°
2026-05-06 11:39 -1.31890 36.92824 5312 ft 163 kts 54°
2026-05-06 11:40 -1.31109 36.93913 5344 ft 214 kts 57°
2026-05-06 11:40 -1.30237 36.95150 6043 ft 211 kts 56°
2026-05-06 11:40 -1.29664 36.96425 6869 ft 206 kts 84°
2026-05-06 11:40 -1.29905 36.97852 7037 ft 215 kts 122°
2026-05-06 11:41 -1.31006 36.98836 7319 ft 218 kts 161°
2026-05-06 11:41 -1.32526 36.98850 7516 ft 228 kts 200°
2026-05-06 11:41 -1.33964 36.98228 7898 ft 227 kts 204°
2026-05-06 11:41 -1.35257 36.97251 7970 ft 248 kts 234°
2026-05-06 11:42 -1.35899 36.95604 8096 ft 264 kts 260°
2026-05-06 11:42 -1.36164 36.93711 8280 ft 283 kts 262°
2026-05-06 11:42 -1.36480 36.91751 8807 ft 288 kts 259°
2026-05-06 11:42 -1.36867 36.89759 9324 ft 296 kts 258°
2026-05-06 11:43 -1.37309 36.87729 9949 ft 299 kts 257°
2026-05-06 11:43 -1.37770 36.85679 10529 ft 306 kts 259°
2026-05-06 11:43 -1.37811 36.83512 10618 ft 324 kts 285°
2026-05-06 11:44 -1.36216 36.79091 10935 ft 361 kts 291°
2026-05-06 11:44 -1.35303 36.76685 11178 ft 378 kts 291°
2026-05-06 11:44 -1.34362 36.74197 11713 ft 385 kts 291°
2026-05-06 11:44 -1.33414 36.71670 12352 ft 389 kts 291°
2026-05-06 11:45 -1.32465 36.69126 13045 ft 391 kts 291°
2026-05-06 11:45 -1.31526 36.66596 13721 ft 393 kts 291°
2026-05-06 11:45 -1.30573 36.64021 14321 ft 396 kts 291°
2026-05-06 11:45 -1.29610 36.61415 14827 ft 401 kts 291°
2026-05-06 11:46 -1.28637 36.58777 15349 ft 405 kts 291°
2026-05-06 11:46 -1.27657 36.56122 15876 ft 409 kts 291°
2026-05-06 11:46 -1.26681 36.53475 16383 ft 412 kts 291°
2026-05-06 11:46 -1.25682 36.50767 16880 ft 417 kts 291°
2026-05-06 11:47 -1.24675 36.48036 17376 ft 420 kts 291°
2026-05-06 11:47 -1.23657 36.45273 17871 ft 424 kts 291°
2026-05-06 11:47 -1.22630 36.42487 18345 ft 428 kts 291°
2026-05-06 11:47 -1.21608 36.39717 18746 ft 432 kts 291°
2026-05-06 11:48 -1.20563 36.36883 19171 ft 435 kts 291°
2026-05-06 11:48 -1.19510 36.34027 19585 ft 438 kts 291°
2026-05-06 11:48 -1.18451 36.31155 19984 ft 442 kts 291°
2026-05-06 11:48 -1.17384 36.28262 20380 ft 445 kts 291°
2026-05-06 11:49 -1.16306 36.25339 20765 ft 449 kts 291°
2026-05-06 11:49 -1.15235 36.22434 21122 ft 453 kts 291°
2026-05-06 11:49 -1.14126 36.19428 21512 ft 457 kts 291°
2026-05-06 11:49 -1.13036 36.16474 21900 ft 460 kts 291°
2026-05-06 11:50 -1.11928 36.13467 22265 ft 463 kts 291°
2026-05-06 11:50 -1.10809 36.10434 22628 ft 466 kts 291°
2026-05-06 11:50 -1.09686 36.07392 23004 ft 469 kts 291°
2026-05-06 11:50 -1.08550 36.04313 23336 ft 473 kts 291°
2026-05-06 11:51 -1.07411 36.01224 23726 ft 475 kts 291°
2026-05-06 11:51 -1.06262 35.98111 24007 ft 477 kts 291°
2026-05-06 11:51 -1.05112 35.94994 24400 ft 478 kts 291°
2026-05-06 11:51 -1.03958 35.91866 24634 ft 482 kts 291°
2026-05-06 11:52 -1.02795 35.88714 24952 ft 483 kts 291°
2026-05-06 11:52 -1.01631 35.85557 25258 ft 485 kts 291°
2026-05-06 11:52 -1.00463 35.82392 25584 ft 486 kts 291°
2026-05-06 11:52 -0.99290 35.79216 25868 ft 488 kts 291°
2026-05-06 11:53 -0.98113 35.76027 26197 ft 489 kts 291°
2026-05-06 11:53 -0.96948 35.72871 26457 ft 492 kts 290°
2026-05-06 11:53 -0.95762 35.69656 26739 ft 494 kts 291°
2026-05-06 11:53 -0.94571 35.66428 27017 ft 495 kts 290°
2026-05-06 11:54 -0.93376 35.63191 27298 ft 497 kts 290°
2026-05-06 11:54 -0.92175 35.59937 27560 ft 499 kts 290°
2026-05-06 11:54 -0.90971 35.56675 27833 ft 500 kts 290°
2026-05-06 11:54 -0.89762 35.53399 28102 ft 502 kts 290°
2026-05-06 11:55 -0.88564 35.50152 28322 ft 504 kts 290°
2026-05-06 11:55 -0.87348 35.46857 28594 ft 505 kts 290°
2026-05-06 11:55 -0.86125 35.43544 28813 ft 508 kts 290°
2026-05-06 11:55 -0.84899 35.40220 28981 ft 511 kts 290°
2026-05-06 11:56 -0.83672 35.36880 29264 ft 511 kts 290°
2026-05-06 11:56 -0.82576 35.33492 29464 ft 513 kts 287°
2026-05-06 11:56 -0.81552 35.30073 29660 ft 514 kts 287°
2026-05-06 11:56 -0.80562 35.26680 29931 ft 514 kts 286°
2026-05-06 11:57 -0.79564 35.23246 30216 ft 514 kts 286°
2026-05-06 11:57 -0.78564 35.19821 30450 ft 513 kts 287°
2026-05-06 11:57 -0.77554 35.16388 30680 ft 513 kts 287°
2026-05-06 11:57 -0.76542 35.12970 30957 ft 512 kts 287°
2026-05-06 11:58 -0.75527 35.09559 31258 ft 510 kts 287°
2026-05-06 11:58 -0.74516 35.06163 31558 ft 509 kts 287°
2026-05-06 11:58 -0.73506 35.02776 31873 ft 507 kts 287°
2026-05-06 11:58 -0.72510 34.99434 31942 ft 511 kts 287°
2026-05-06 11:59 -0.70474 34.92595 31992 ft 513 kts 287°
2026-05-06 11:59 -0.68441 34.85761 31979 ft 512 kts 287°
2026-05-06 12:00 -0.66416 34.78952 31965 ft 508 kts 287°
2026-05-06 12:00 -0.64409 34.72210 31950 ft 505 kts 287°
2026-05-06 12:01 -0.62425 34.65545 31946 ft 503 kts 287°
2026-05-06 12:01 -0.60428 34.58835 31930 ft 503 kts 287°
2026-05-06 12:02 -0.58514 34.52097 31926 ft 505 kts 285°
2026-05-06 12:02 -0.56673 34.45315 31915 ft 506 kts 285°
2026-05-06 12:03 -0.54819 34.38515 31911 ft 508 kts 285°
2026-05-06 12:03 -0.52945 34.31702 31904 ft 509 kts 285°
2026-05-06 12:04 -0.51073 34.24913 31912 ft 510 kts 285°
2026-05-06 12:04 -0.49184 34.18063 31909 ft 511 kts 285°
2026-05-06 12:05 -0.47296 34.11208 31907 ft 512 kts 285°
2026-05-06 12:05 -0.45404 34.04341 31921 ft 512 kts 285°
2026-05-06 12:06 -0.43526 33.97521 31911 ft 512 kts 285°
2026-05-06 12:06 -0.41456 33.90731 31911 ft 511 kts 289°
2026-05-06 12:07 -0.39146 33.84026 31915 ft 510 kts 289°
2026-05-06 12:07 -0.36865 33.77328 31917 ft 509 kts 289°
2026-05-06 12:08 -0.34632 33.70622 31920 ft 508 kts 289°
2026-05-06 12:08 -0.32414 33.63922 31914 ft 508 kts 289°
2026-05-06 12:09 -0.30195 33.57230 31920 ft 507 kts 289°
2026-05-06 12:09 -0.27976 33.50546 31923 ft 507 kts 288°
2026-05-06 12:10 -0.25778 33.43864 31918 ft 506 kts 288°
2026-05-06 12:10 -0.23689 33.37146 31924 ft 506 kts 287°
2026-05-06 12:11 -0.21624 33.30419 31921 ft 506 kts 287°
2026-05-06 12:11 -0.19545 33.23695 31927 ft 506 kts 287°
2026-05-06 12:12 -0.17468 33.17013 31925 ft 506 kts 287°
2026-05-06 12:12 -0.15377 33.10295 31927 ft 507 kts 287°
2026-05-06 12:13 -0.13282 33.03563 31929 ft 507 kts 287°
2026-05-06 12:13 -0.11189 32.96833 31937 ft 507 kts 287°
2026-05-06 12:14 -0.09446 32.91224 31945 ft 508 kts 287°
2026-05-06 12:14 -0.07358 32.84510 31955 ft 508 kts 287°
2026-05-06 12:15 -0.05259 32.77760 31973 ft 509 kts 287°
2026-05-06 12:15 -0.03158 32.71003 32000 ft 509 kts 287°
2026-05-06 12:16 -0.01055 32.64242 32024 ft 509 kts 287°
2026-05-06 12:16 0.01045 32.57486 32042 ft 509 kts 287°
2026-05-06 12:17 0.03144 32.50735 32050 ft 509 kts 287°
2026-05-06 12:17 0.05584 32.44098 32039 ft 509 kts 295°
2026-05-06 12:18 0.09114 32.38026 32048 ft 509 kts 304°
2026-05-06 12:18 0.13168 32.32217 32047 ft 509 kts 305°
2026-05-06 12:19 0.17212 32.26394 32032 ft 510 kts 304°
2026-05-06 12:19 0.21219 32.20547 32020 ft 510 kts 304°
2026-05-06 12:20 0.25230 32.14674 32011 ft 511 kts 304°
2026-05-06 12:20 0.29245 32.08800 32004 ft 512 kts 304°
2026-05-06 12:21 0.33265 32.02922 31990 ft 512 kts 304°
2026-05-06 12:21 0.37243 31.97071 31994 ft 513 kts 304°
2026-05-06 12:22 0.41246 31.91160 31989 ft 513 kts 304°
2026-05-06 12:22 0.45252 31.85249 31988 ft 513 kts 304°
2026-05-06 12:23 0.49259 31.79339 31980 ft 514 kts 304°
2026-05-06 12:23 0.53252 31.73452 31974 ft 514 kts 304°
2026-05-06 12:24 0.57292 31.67494 31976 ft 515 kts 304°
2026-05-06 12:24 0.61307 31.61572 31969 ft 515 kts 304°
2026-05-06 12:25 0.65299 31.55684 31966 ft 515 kts 304°
2026-05-06 12:25 0.69320 31.49773 31952 ft 514 kts 304°
2026-05-06 12:26 0.73347 31.43879 31949 ft 513 kts 304°
2026-05-06 12:26 0.77372 31.37986 31941 ft 513 kts 304°
2026-05-06 12:27 0.81392 31.32094 31929 ft 512 kts 304°
2026-05-06 12:27 0.85405 31.26210 31923 ft 512 kts 304°
2026-05-06 12:28 0.89417 31.20328 31914 ft 512 kts 304°
2026-05-06 12:28 0.93429 31.14446 31905 ft 512 kts 304°
2026-05-06 12:29 0.97413 31.08605 31902 ft 511 kts 304°
2026-05-06 12:29 1.01418 31.02733 31886 ft 511 kts 304°
2026-05-06 12:30 1.05418 30.96867 31882 ft 511 kts 304°
2026-05-06 12:30 1.09420 30.90998 31877 ft 511 kts 304°
2026-05-06 12:31 1.13422 30.85128 31867 ft 510 kts 304°
2026-05-06 12:31 1.17418 30.79266 31860 ft 510 kts 304°
2026-05-06 12:32 1.21391 30.73439 31850 ft 510 kts 304°
2026-05-06 12:32 1.25384 30.67581 31835 ft 509 kts 304°
2026-05-06 12:33 1.29398 30.61744 31833 ft 509 kts 304°
2026-05-06 12:33 1.33458 30.55965 31835 ft 508 kts 305°
2026-05-06 12:34 1.37523 30.50179 31837 ft 508 kts 304°
2026-05-06 12:34 1.41570 30.44398 31844 ft 507 kts 304°
2026-05-06 12:35 1.45589 30.38650 31846 ft 507 kts 304°
2026-05-06 12:35 1.49635 30.32863 31848 ft 507 kts 304°
2026-05-06 12:36 1.53682 30.27076 31847 ft 507 kts 304°
2026-05-06 12:36 1.57506 30.21140 31847 ft 507 kts 297°
2026-05-06 12:37 1.60491 30.14764 31847 ft 507 kts 294°
2026-05-06 12:37 1.63394 30.08388 31842 ft 507 kts 294°
2026-05-06 12:38 1.66361 30.01985 31833 ft 507 kts 295°
2026-05-06 12:38 1.69348 29.95595 31826 ft 507 kts 295°
2026-05-06 12:39 1.72334 29.89204 31825 ft 507 kts 295°
2026-05-06 12:39 1.75315 29.82814 31820 ft 507 kts 295°
2026-05-06 12:40 1.78324 29.76426 31815 ft 508 kts 296°
2026-05-06 12:40 1.81442 29.70116 31818 ft 508 kts 296°
2026-05-06 12:41 1.84588 29.63779 31816 ft 508 kts 296°
2026-05-06 12:41 1.87698 29.57463 31816 ft 508 kts 296°
2026-05-06 12:42 1.90819 29.51111 31812 ft 508 kts 296°
2026-05-06 12:42 1.93899 29.44789 31811 ft 508 kts 295°
2026-05-06 12:43 1.96915 29.38393 31806 ft 508 kts 295°
2026-05-06 12:43 1.99921 29.31982 31806 ft 508 kts 295°
2026-05-06 12:44 2.02936 29.25579 31807 ft 508 kts 295°
2026-05-06 12:44 2.05951 29.19194 31803 ft 508 kts 295°
2026-05-06 12:45 2.08945 29.12857 31802 ft 507 kts 295°
2026-05-06 12:46 2.13471 29.03271 31800 ft 507 kts 295°
2026-05-06 12:46 2.16463 28.96933 31801 ft 506 kts 295°
2026-05-06 12:47 2.19467 28.90568 31796 ft 506 kts 295°
2026-05-06 12:47 2.22468 28.84208 31796 ft 505 kts 295°
2026-05-06 12:48 2.25471 28.77845 31795 ft 505 kts 295°
2026-05-06 12:48 2.28456 28.71516 31794 ft 505 kts 295°
2026-05-06 12:49 2.31459 28.65152 31792 ft 504 kts 295°
2026-05-06 12:49 2.34433 28.58845 31788 ft 504 kts 295°
2026-05-06 12:50 2.37426 28.52500 31785 ft 504 kts 295°
2026-05-06 12:50 2.40416 28.46157 31786 ft 503 kts 295°
2026-05-06 12:51 2.43408 28.39811 31782 ft 503 kts 295°
2026-05-06 12:51 2.46393 28.33479 31784 ft 503 kts 295°
2026-05-06 12:52 2.49360 28.27181 31781 ft 503 kts 295°
2026-05-06 12:52 2.52348 28.20844 31781 ft 503 kts 295°
2026-05-06 12:53 2.55342 28.14568 31780 ft 503 kts 295°
2026-05-06 12:53 2.58367 28.08251 31781 ft 503 kts 295°
2026-05-06 12:54 2.61393 28.01923 31781 ft 503 kts 295°
2026-05-06 12:54 2.64393 27.95641 31778 ft 503 kts 295°
2026-05-06 12:55 2.67393 27.89354 31779 ft 503 kts 295°
2026-05-06 12:55 2.70405 27.83041 31782 ft 502 kts 295°
2026-05-06 12:56 2.73420 27.76724 31780 ft 502 kts 295°
2026-05-06 12:56 2.76416 27.70441 31781 ft 502 kts 295°
2026-05-06 12:57 2.79426 27.64132 31777 ft 502 kts 295°
2026-05-06 12:57 2.82818 27.58023 31781 ft 501 kts 305°
2026-05-06 12:58 2.86975 27.52482 31784 ft 501 kts 307°
2026-05-06 12:58 2.91200 27.46943 31775 ft 501 kts 307°
2026-05-06 12:59 2.95401 27.41380 31780 ft 500 kts 306°
2026-05-06 12:59 2.99581 27.35801 31779 ft 500 kts 306°
2026-05-06 13:00 3.03732 27.30249 31778 ft 500 kts 306°
2026-05-06 13:00 3.07902 27.24673 31776 ft 500 kts 306°
2026-05-06 13:01 3.11367 27.20040 31774 ft 500 kts 306°
2026-05-06 13:01 3.15539 27.14463 31775 ft 499 kts 306°
2026-05-06 13:02 3.19703 27.08896 31770 ft 499 kts 306°
2026-05-06 13:02 3.23843 27.03360 31780 ft 499 kts 306°
2026-05-06 13:03 3.28009 26.97789 31773 ft 500 kts 306°
2026-05-06 13:03 3.32175 26.92215 31778 ft 500 kts 306°
2026-05-06 13:04 3.36324 26.86667 31759 ft 500 kts 306°
2026-05-06 13:04 3.40499 26.81079 31755 ft 500 kts 306°
2026-05-06 13:05 3.44676 26.75489 31783 ft 500 kts 306°
2026-05-06 13:05 3.48822 26.69939 31772 ft 501 kts 306°
2026-05-06 13:06 3.53005 26.64341 31774 ft 501 kts 306°
2026-05-06 13:06 3.57187 26.58742 31771 ft 501 kts 306°
2026-05-06 13:07 3.61356 26.53159 31771 ft 501 kts 306°
2026-05-06 13:07 3.65534 26.47562 31776 ft 501 kts 306°
2026-05-06 13:08 3.69684 26.42003 31773 ft 501 kts 306°
2026-05-06 13:08 3.73860 26.36408 31773 ft 501 kts 306°
2026-05-06 13:09 3.78035 26.30812 31771 ft 501 kts 306°
2026-05-06 13:09 3.82206 26.25223 31777 ft 501 kts 306°
2026-05-06 13:10 3.86378 26.19630 31773 ft 501 kts 306°
2026-05-06 13:10 3.90519 26.14077 31779 ft 501 kts 306°
2026-05-06 13:11 3.94688 26.08486 31777 ft 501 kts 306°
2026-05-06 13:11 3.98859 26.02891 31781 ft 501 kts 306°
2026-05-06 13:12 4.03035 25.97288 31780 ft 502 kts 306°
2026-05-06 13:12 4.07219 25.91675 31780 ft 502 kts 306°
2026-05-06 13:13 4.11370 25.86103 31781 ft 502 kts 307°
2026-05-06 13:13 4.15559 25.80480 31779 ft 503 kts 307°
2026-05-06 13:14 4.19745 25.74859 31784 ft 503 kts 307°
2026-05-06 13:14 4.23940 25.69225 31788 ft 503 kts 307°
2026-05-06 13:15 4.28108 25.63627 31788 ft 504 kts 307°
2026-05-06 13:15 4.32299 25.57996 31790 ft 504 kts 307°
2026-05-06 13:16 4.36492 25.52362 31791 ft 503 kts 307°
2026-05-06 13:16 4.40679 25.46732 31796 ft 503 kts 307°
2026-05-06 13:17 4.44832 25.41149 31798 ft 503 kts 307°
2026-05-06 13:17 4.49018 25.35520 31805 ft 502 kts 307°
2026-05-06 13:18 4.53201 25.29894 31805 ft 502 kts 307°
2026-05-06 13:18 4.57351 25.24310 31810 ft 502 kts 307°
2026-05-06 13:19 4.61524 25.18695 31811 ft 502 kts 307°
2026-05-06 13:19 4.65696 25.13083 31814 ft 502 kts 307°
2026-05-06 13:20 4.69871 25.07466 31816 ft 502 kts 307°
2026-05-06 13:20 4.74042 25.01850 31822 ft 502 kts 307°
2026-05-06 13:21 4.78217 24.96227 31824 ft 502 kts 307°
2026-05-06 13:21 4.82394 24.90602 31824 ft 502 kts 307°
2026-05-06 13:22 4.86570 24.84974 31825 ft 502 kts 307°
2026-05-06 13:22 4.90744 24.79348 31823 ft 502 kts 307°
2026-05-06 13:23 4.94892 24.73758 31829 ft 502 kts 307°
2026-05-06 13:23 4.99064 24.68138 31829 ft 501 kts 307°
2026-05-06 13:24 5.03229 24.62524 31827 ft 501 kts 307°
2026-05-06 13:24 5.07362 24.56952 31831 ft 500 kts 307°
2026-05-06 13:25 5.11516 24.51347 31826 ft 500 kts 307°
2026-05-06 13:25 5.15673 24.45740 31830 ft 499 kts 307°
2026-05-06 13:26 5.19822 24.40144 31828 ft 499 kts 307°
2026-05-06 13:26 5.23943 24.34586 31832 ft 499 kts 307°
2026-05-06 13:27 5.28082 24.28999 31834 ft 498 kts 307°
2026-05-06 13:27 5.32220 24.23411 31832 ft 498 kts 307°
2026-05-06 13:28 5.36360 24.17820 31833 ft 498 kts 307°
2026-05-06 13:28 5.40491 24.12240 31831 ft 498 kts 307°
2026-05-06 13:29 5.44604 24.06682 31833 ft 498 kts 307°
2026-05-06 13:29 5.48733 24.01101 31837 ft 498 kts 307°
2026-05-06 13:30 5.52868 23.95510 31836 ft 498 kts 307°
2026-05-06 13:30 5.56976 23.89953 31837 ft 498 kts 307°
2026-05-06 13:31 5.61109 23.84362 31838 ft 498 kts 307°
2026-05-06 13:31 5.65537 23.79039 31832 ft 496 kts 319°
2026-05-06 13:32 5.71284 23.75280 31843 ft 496 kts 336°
2026-05-06 13:32 5.77754 23.72896 31844 ft 496 kts 341°
2026-05-06 13:33 5.84280 23.70606 31846 ft 497 kts 340°
2026-05-06 13:33 5.90804 23.68263 31842 ft 498 kts 340°
2026-05-06 13:34 5.97295 23.65888 31842 ft 499 kts 340°
2026-05-06 13:34 6.03829 23.63486 31840 ft 499 kts 340°
2026-05-06 13:35 6.10360 23.61087 31840 ft 498 kts 340°
2026-05-06 13:35 6.16875 23.58695 31841 ft 497 kts 340°
2026-05-06 13:36 6.23340 23.56322 31836 ft 497 kts 340°
2026-05-06 13:36 6.29797 23.53952 31838 ft 496 kts 340°
2026-05-06 13:37 6.36302 23.51563 31841 ft 496 kts 340°
2026-05-06 13:37 6.42788 23.49180 31836 ft 496 kts 339°
2026-05-06 13:38 6.49269 23.46799 31837 ft 496 kts 339°
2026-05-06 13:38 6.55748 23.44417 31834 ft 496 kts 339°
2026-05-06 13:39 6.62197 23.42046 31831 ft 496 kts 339°
2026-05-06 13:39 6.68689 23.39659 31831 ft 497 kts 339°
2026-05-06 13:40 6.75198 23.37264 31830 ft 498 kts 339°
2026-05-06 13:40 6.81713 23.34867 31828 ft 499 kts 339°
2026-05-06 13:41 6.88245 23.32462 31826 ft 500 kts 339°
2026-05-06 13:41 6.94750 23.30067 31825 ft 501 kts 339°
2026-05-06 13:42 7.01307 23.27652 31822 ft 501 kts 338°
2026-05-06 13:42 7.07873 23.25233 31816 ft 502 kts 338°
2026-05-06 13:43 7.14390 23.22831 31817 ft 502 kts 338°
2026-05-06 13:43 7.20959 23.20409 31811 ft 502 kts 338°
2026-05-06 13:44 7.27538 23.17983 31811 ft 502 kts 338°
2026-05-06 13:44 7.34106 23.15563 31808 ft 502 kts 338°
2026-05-06 13:45 7.40630 23.13161 31803 ft 502 kts 338°
2026-05-06 13:45 7.50486 23.09530 31802 ft 502 kts 338°
2026-05-06 13:46 7.57060 23.07107 31797 ft 502 kts 338°
2026-05-06 13:46 7.63578 23.04703 31799 ft 502 kts 338°
2026-05-06 13:47 7.70143 23.02280 31797 ft 502 kts 338°
2026-05-06 13:47 7.76724 22.99852 31797 ft 502 kts 338°
2026-05-06 13:48 7.82192 22.97833 31804 ft 502 kts 338°
2026-05-06 13:48 7.88777 22.95401 31798 ft 503 kts 338°
2026-05-06 13:49 7.95307 22.92989 31802 ft 503 kts 338°
2026-05-06 13:49 8.01882 22.90559 31799 ft 503 kts 338°
2026-05-06 13:50 8.08466 22.88125 31800 ft 503 kts 338°
2026-05-06 13:50 8.15056 22.85688 31803 ft 503 kts 338°
2026-05-06 13:51 8.21605 22.83264 31807 ft 504 kts 338°
2026-05-06 13:51 8.28197 22.80824 31808 ft 504 kts 338°
2026-05-06 13:52 8.34789 22.78382 31814 ft 504 kts 338°
2026-05-06 13:52 8.41341 22.75953 31812 ft 504 kts 338°
2026-05-06 13:53 8.47940 22.73506 31812 ft 504 kts 338°
2026-05-06 13:53 8.54534 22.71060 31811 ft 504 kts 338°
2026-05-06 13:54 8.61091 22.68627 31803 ft 505 kts 338°
2026-05-06 13:54 8.67693 22.66177 31800 ft 504 kts 338°
2026-05-06 13:55 8.74274 22.63733 31790 ft 503 kts 338°
2026-05-06 13:55 8.80853 22.61289 31781 ft 502 kts 338°
2026-05-06 13:56 8.87377 22.58865 31775 ft 501 kts 338°
2026-05-06 13:56 8.93931 22.56428 31765 ft 500 kts 338°
2026-05-06 13:57 9.00426 22.54013 31761 ft 499 kts 338°
2026-05-06 13:57 9.06951 22.51585 31754 ft 499 kts 338°
2026-05-06 13:58 9.13466 22.49160 31746 ft 499 kts 338°
2026-05-06 13:58 9.19983 22.46733 31745 ft 499 kts 338°
2026-05-06 13:59 9.26513 22.44301 31739 ft 499 kts 338°
2026-05-06 13:59 9.32994 22.41886 31738 ft 500 kts 338°
2026-05-06 14:00 9.39527 22.39450 31735 ft 500 kts 338°
2026-05-06 14:00 9.46077 22.37007 31730 ft 500 kts 338°
2026-05-06 14:01 9.52594 22.34575 31728 ft 501 kts 338°
2026-05-06 14:01 9.59144 22.32128 31731 ft 501 kts 338°
2026-05-06 14:02 9.65700 22.29672 31725 ft 502 kts 338°
2026-05-06 14:02 9.72259 22.27215 31714 ft 502 kts 338°
2026-05-06 14:03 9.78786 22.24769 31723 ft 502 kts 338°
2026-05-06 14:03 9.85352 22.22262 31716 ft 502 kts 337°
2026-05-06 14:04 9.91843 22.19730 31717 ft 502 kts 336°
2026-05-06 14:04 9.98384 22.17178 31717 ft 503 kts 337°
2026-05-06 14:05 10.04888 22.14649 31717 ft 503 kts 337°
2026-05-06 14:05 10.11439 22.12104 31714 ft 503 kts 337°
2026-05-06 14:06 10.17983 22.09561 31708 ft 503 kts 337°
2026-05-06 14:06 10.24483 22.07034 31714 ft 503 kts 337°
2026-05-06 14:07 10.31016 22.04492 31711 ft 502 kts 337°
2026-05-06 14:07 10.37552 22.01948 31712 ft 502 kts 337°
2026-05-06 14:08 10.44037 21.99424 31711 ft 501 kts 337°
2026-05-06 14:08 10.50554 21.96885 31712 ft 501 kts 337°
2026-05-06 14:09 10.57078 21.94342 31714 ft 501 kts 337°
2026-05-06 14:09 10.63543 21.91821 31711 ft 500 kts 337°
2026-05-06 14:10 10.70058 21.89280 31711 ft 500 kts 337°
2026-05-06 14:10 10.76546 21.86747 31707 ft 500 kts 337°
2026-05-06 14:11 10.83038 21.84213 31712 ft 499 kts 337°
2026-05-06 14:11 10.89522 21.81680 31704 ft 499 kts 337°
2026-05-06 14:12 10.96014 21.79143 31711 ft 499 kts 337°
2026-05-06 14:12 11.02463 21.76621 31704 ft 499 kts 337°
2026-05-06 14:13 11.08949 21.74083 31704 ft 499 kts 337°
2026-05-06 14:13 11.15412 21.71554 31703 ft 498 kts 337°
2026-05-06 14:14 11.21891 21.69016 31704 ft 498 kts 337°
2026-05-06 14:14 11.28367 21.66480 31706 ft 498 kts 337°
2026-05-06 14:15 11.34902 21.64104 31701 ft 498 kts 339°
2026-05-06 14:15 11.41422 21.61841 31702 ft 498 kts 339°
2026-05-06 14:16 11.47985 21.59543 31706 ft 498 kts 339°
2026-05-06 14:16 11.54542 21.57220 31704 ft 498 kts 339°
2026-05-06 14:17 11.61093 21.54891 31707 ft 498 kts 339°
2026-05-06 14:17 11.67607 21.52574 31703 ft 498 kts 339°
2026-05-06 14:18 11.74158 21.50244 31704 ft 498 kts 339°
2026-05-06 14:18 11.80702 21.47916 31705 ft 498 kts 339°
2026-05-06 14:19 11.87215 21.45598 31705 ft 498 kts 339°
2026-05-06 14:19 11.93763 21.43266 31708 ft 498 kts 339°
2026-05-06 14:20 12.00310 21.40932 31705 ft 498 kts 339°
2026-05-06 14:20 12.06824 21.38610 31711 ft 498 kts 339°
2026-05-06 14:21 12.13373 21.36274 31706 ft 498 kts 339°
2026-05-06 14:21 12.19917 21.33933 31708 ft 498 kts 339°
2026-05-06 14:22 12.26459 21.31549 31704 ft 498 kts 339°
2026-05-06 14:22 12.32941 21.29175 31705 ft 498 kts 339°
2026-05-06 14:23 12.39481 21.26783 31703 ft 498 kts 339°
2026-05-06 14:23 12.46009 21.24398 31705 ft 497 kts 339°
2026-05-06 14:24 12.52499 21.22027 31700 ft 498 kts 339°
2026-05-06 14:24 12.59026 21.19640 31699 ft 497 kts 339°
2026-05-06 14:25 12.65546 21.17254 31697 ft 497 kts 339°
2026-05-06 14:25 12.72036 21.14878 31701 ft 498 kts 339°
2026-05-06 14:26 12.75313 21.13678 31875 ft 500 kts 339°
2026-05-06 14:26 12.78583 21.12480 32229 ft 498 kts 338°
2026-05-06 14:26 12.81845 21.11285 32638 ft 496 kts 338°
2026-05-06 14:26 12.85097 21.10094 33014 ft 494 kts 338°
2026-05-06 14:27 12.88325 21.08911 33366 ft 493 kts 338°
2026-05-06 14:27 12.91554 21.07726 33619 ft 493 kts 338°
2026-05-06 14:27 12.98035 21.05347 33705 ft 495 kts 338°
2026-05-06 14:28 13.04476 21.02983 33700 ft 493 kts 338°
2026-05-06 14:28 13.10920 21.00616 33687 ft 490 kts 338°
2026-05-06 14:29 13.17346 20.98254 33709 ft 489 kts 338°
2026-05-06 14:29 13.23742 20.95871 33707 ft 488 kts 335°
2026-05-06 14:30 13.29924 20.93092 33718 ft 487 kts 333°
2026-05-06 14:30 13.36106 20.90208 33701 ft 488 kts 333°
2026-05-06 14:31 13.42318 20.87332 33698 ft 489 kts 333°
2026-05-06 14:31 13.48493 20.84494 33705 ft 489 kts 333°
2026-05-06 14:32 13.54707 20.81642 33726 ft 488 kts 333°
2026-05-06 14:32 13.60917 20.78788 33745 ft 488 kts 333°
2026-05-06 14:33 13.67070 20.75956 33760 ft 487 kts 333°
2026-05-06 14:33 13.73248 20.73112 33773 ft 486 kts 333°
2026-05-06 14:34 13.79420 20.70280 33784 ft 485 kts 334°
2026-05-06 14:34 13.85822 20.68000 33782 ft 486 kts 340°
2026-05-06 14:35 13.92257 20.65942 33765 ft 486 kts 340°
2026-05-06 14:35 13.98713 20.63853 33743 ft 486 kts 339°
2026-05-06 14:36 14.04076 20.62093 33732 ft 486 kts 339°
2026-05-06 14:36 14.10545 20.59960 33710 ft 486 kts 339°
2026-05-06 14:37 14.16965 20.57843 33710 ft 486 kts 339°
2026-05-06 14:37 14.23426 20.55713 33711 ft 486 kts 339°
2026-05-06 14:38 14.29840 20.53597 33711 ft 487 kts 339°
2026-05-06 14:38 14.36299 20.51465 33712 ft 487 kts 339°
2026-05-06 14:39 14.42657 20.49073 33716 ft 485 kts 336°
2026-05-06 14:39 14.48962 20.46531 33720 ft 485 kts 335°
2026-05-06 14:40 14.55236 20.44009 33719 ft 485 kts 335°
2026-05-06 14:40 14.61548 20.41495 33723 ft 485 kts 336°
2026-05-06 14:41 14.67847 20.38994 33721 ft 485 kts 336°
2026-05-06 14:41 14.74122 20.36499 33726 ft 484 kts 336°
2026-05-06 14:42 14.80421 20.33992 33731 ft 484 kts 335°
2026-05-06 14:42 14.86711 20.31486 33730 ft 483 kts 335°
2026-05-06 14:43 14.92940 20.29003 33736 ft 482 kts 335°
2026-05-06 14:43 14.99192 20.26458 33741 ft 482 kts 335°
2026-05-06 14:44 15.05397 20.23830 33743 ft 481 kts 334°
2026-05-06 14:45 15.14650 20.19899 33745 ft 480 kts 334°
2026-05-06 14:45 15.20835 20.17285 33748 ft 480 kts 334°
2026-05-06 14:46 15.27022 20.14673 33746 ft 479 kts 334°
2026-05-06 14:46 15.33210 20.12059 33750 ft 479 kts 334°
2026-05-06 14:47 15.39360 20.09460 33751 ft 479 kts 334°
2026-05-06 14:47 15.45539 20.06845 33754 ft 479 kts 334°
2026-05-06 14:48 15.51731 20.04224 33752 ft 480 kts 334°
2026-05-06 14:48 15.57908 20.01607 33756 ft 480 kts 334°
2026-05-06 14:49 15.64062 19.98998 33752 ft 480 kts 334°
2026-05-06 14:49 15.70264 19.96368 33759 ft 480 kts 334°
2026-05-06 14:50 15.76455 19.93740 33759 ft 480 kts 334°
2026-05-06 14:50 15.82601 19.91129 33761 ft 480 kts 334°
2026-05-06 14:51 15.88799 19.88495 33760 ft 480 kts 334°
2026-05-06 14:51 15.94958 19.85876 33761 ft 480 kts 334°
2026-05-06 14:52 16.01145 19.83243 33761 ft 480 kts 334°
2026-05-06 14:52 16.07329 19.80609 33767 ft 479 kts 334°
2026-05-06 14:53 16.13509 19.77976 33760 ft 479 kts 334°
2026-05-06 14:53 16.19645 19.75359 33761 ft 479 kts 334°
2026-05-06 14:54 16.25810 19.72729 33763 ft 478 kts 334°
2026-05-06 14:54 16.31982 19.70093 33763 ft 478 kts 334°
2026-05-06 14:55 16.38102 19.67478 33761 ft 477 kts 334°
2026-05-06 14:55 16.44247 19.64850 33765 ft 477 kts 334°
2026-05-06 14:56 16.50383 19.62224 33767 ft 476 kts 334°
2026-05-06 14:56 16.56526 19.59594 33767 ft 475 kts 334°
2026-05-06 14:57 16.62608 19.56988 33763 ft 475 kts 334°
2026-05-06 14:57 16.68711 19.54371 33768 ft 474 kts 334°
2026-05-06 14:58 16.74813 19.51753 33768 ft 473 kts 334°
2026-05-06 14:58 16.80912 19.49134 33770 ft 473 kts 334°
2026-05-06 14:59 16.86994 19.46520 33768 ft 473 kts 334°
2026-05-06 14:59 16.93045 19.43919 33769 ft 473 kts 334°
2026-05-06 15:00 16.99147 19.41293 33774 ft 473 kts 334°
2026-05-06 15:00 17.05235 19.38672 33770 ft 473 kts 335°
2026-05-06 15:01 17.11298 19.36059 33770 ft 473 kts 335°
2026-05-06 15:01 17.17390 19.33432 33764 ft 473 kts 335°
2026-05-06 15:02 17.23452 19.30817 33772 ft 473 kts 335°
2026-05-06 15:02 17.29550 19.28183 33770 ft 473 kts 335°
2026-05-06 15:03 17.35646 19.25549 33771 ft 473 kts 335°
2026-05-06 15:03 17.41737 19.22915 33774 ft 473 kts 335°
2026-05-06 15:04 17.47837 19.20276 33773 ft 473 kts 335°
2026-05-06 15:04 17.53898 19.17651 33777 ft 473 kts 335°
2026-05-06 15:05 17.59997 19.15008 33777 ft 473 kts 335°
2026-05-06 15:05 17.66054 19.12381 33777 ft 473 kts 335°
2026-05-06 15:06 17.72148 19.09736 33779 ft 474 kts 334°
2026-05-06 15:06 17.78248 19.07086 33787 ft 474 kts 334°
2026-05-06 15:07 17.84356 19.04432 33784 ft 475 kts 334°
2026-05-06 15:07 17.90462 19.01776 33787 ft 475 kts 334°
2026-05-06 15:08 17.96532 18.99134 33786 ft 475 kts 334°
2026-05-06 15:08 18.02645 18.96471 33793 ft 475 kts 334°
2026-05-06 15:09 18.08760 18.93804 33793 ft 475 kts 334°
2026-05-06 15:09 18.14844 18.91151 33791 ft 475 kts 334°
2026-05-06 15:10 18.20966 18.88478 33785 ft 475 kts 334°
2026-05-06 15:10 18.27075 18.85809 33794 ft 474 kts 334°
2026-05-06 15:11 18.33135 18.83159 33797 ft 473 kts 334°
2026-05-06 15:11 18.39220 18.80496 33795 ft 472 kts 334°
2026-05-06 15:12 18.45289 18.77838 33801 ft 471 kts 334°
2026-05-06 15:12 18.51305 18.75202 33801 ft 469 kts 334°
2026-05-06 15:13 18.57341 18.72554 33803 ft 468 kts 334°
2026-05-06 15:13 18.63309 18.69934 33803 ft 467 kts 334°
2026-05-06 15:14 18.69300 18.67303 33807 ft 465 kts 334°
2026-05-06 15:14 18.75278 18.64675 33806 ft 465 kts 334°
2026-05-06 15:15 18.81248 18.62047 33806 ft 465 kts 334°
2026-05-06 15:15 18.87218 18.59419 33811 ft 464 kts 334°
2026-05-06 15:16 18.93195 18.56785 33810 ft 465 kts 334°
2026-05-06 15:16 18.99129 18.54168 33814 ft 465 kts 334°
2026-05-06 15:17 19.05110 18.51528 33818 ft 465 kts 334°
2026-05-06 15:17 19.11085 18.48889 33822 ft 465 kts 335°
2026-05-06 15:18 19.17058 18.46249 33821 ft 465 kts 335°
2026-05-06 15:18 19.22989 18.43625 33829 ft 464 kts 335°
2026-05-06 15:19 19.28948 18.40987 33833 ft 464 kts 335°
2026-05-06 15:19 19.34908 18.38346 33838 ft 463 kts 335°
2026-05-06 15:20 19.40815 18.35727 33841 ft 462 kts 335°
2026-05-06 15:20 19.46753 18.33092 33852 ft 461 kts 335°
2026-05-06 15:21 19.52643 18.30476 33853 ft 461 kts 335°
2026-05-06 15:21 19.58556 18.27848 33865 ft 460 kts 335°
2026-05-06 15:22 19.64469 18.25217 33869 ft 459 kts 335°
2026-05-06 15:22 19.70321 18.22611 33877 ft 459 kts 335°
2026-05-06 15:23 19.75218 18.20429 33883 ft 459 kts 335°
2026-05-06 15:23 19.81127 18.17795 33863 ft 459 kts 335°
2026-05-06 15:24 19.87016 18.15167 33864 ft 459 kts 335°
2026-05-06 15:24 19.92872 18.12552 33866 ft 459 kts 334°
2026-05-06 15:25 19.98771 18.09915 33872 ft 459 kts 334°
2026-05-06 15:25 20.04664 18.07279 33870 ft 459 kts 334°
2026-05-06 15:26 20.10519 18.04657 33854 ft 459 kts 334°
2026-05-06 15:26 20.16422 18.02011 33854 ft 459 kts 334°
2026-05-06 15:27 20.22212 17.99240 33856 ft 458 kts 333°
2026-05-06 15:27 20.28005 17.96364 33856 ft 459 kts 332°
2026-05-06 15:28 20.33821 17.93485 33859 ft 460 kts 333°
2026-05-06 15:28 20.39649 17.90619 33869 ft 461 kts 333°
2026-05-06 15:29 20.45469 17.87762 33868 ft 462 kts 333°
2026-05-06 15:29 20.51285 17.84906 33886 ft 462 kts 333°
2026-05-06 15:30 20.57152 17.82022 33896 ft 463 kts 333°
2026-05-06 15:30 20.63000 17.79144 33903 ft 462 kts 333°
2026-05-06 15:31 20.68843 17.76267 33914 ft 462 kts 333°
2026-05-06 15:31 20.74638 17.73410 33917 ft 461 kts 332°
2026-05-06 15:32 20.83380 17.69098 33932 ft 459 kts 332°
2026-05-06 15:32 20.89169 17.66238 33933 ft 458 kts 332°
2026-05-06 15:33 20.94949 17.63380 33924 ft 457 kts 332°
2026-05-06 15:33 21.00695 17.60537 33916 ft 456 kts 332°
2026-05-06 15:34 21.06450 17.57686 33923 ft 456 kts 332°
2026-05-06 15:34 21.12224 17.54822 33906 ft 457 kts 332°
2026-05-06 15:35 21.17972 17.51970 33900 ft 457 kts 332°
2026-05-06 15:35 21.23746 17.49104 33894 ft 457 kts 332°
2026-05-06 15:36 21.29523 17.46234 33885 ft 457 kts 332°
2026-05-06 15:36 21.35304 17.43357 33879 ft 457 kts 332°
2026-05-06 15:37 21.41044 17.40500 33863 ft 457 kts 332°
2026-05-06 15:37 21.46813 17.37626 33862 ft 457 kts 332°
2026-05-06 15:38 21.52584 17.34748 33862 ft 457 kts 332°
2026-05-06 15:38 21.58361 17.31864 33861 ft 457 kts 332°
2026-05-06 15:39 21.64137 17.28978 33858 ft 457 kts 332°
2026-05-06 15:39 21.69883 17.26104 33850 ft 458 kts 332°
2026-05-06 15:40 21.75664 17.23212 33848 ft 458 kts 332°
2026-05-06 15:40 21.81440 17.20318 33832 ft 457 kts 332°
2026-05-06 15:41 21.87199 17.17430 33839 ft 456 kts 332°
2026-05-06 15:41 21.92916 17.14560 33829 ft 456 kts 332°
2026-05-06 15:42 21.98668 17.11671 33828 ft 455 kts 332°
2026-05-06 15:42 22.04401 17.08772 33821 ft 455 kts 332°
2026-05-06 15:43 22.10125 17.05849 33816 ft 455 kts 331°
2026-05-06 15:43 22.15843 17.02923 33814 ft 455 kts 331°
2026-05-06 15:44 22.21538 17.00010 33805 ft 455 kts 331°
2026-05-06 15:44 22.27268 16.97078 33810 ft 455 kts 331°
2026-05-06 15:45 22.33007 16.94139 33798 ft 456 kts 331°
2026-05-06 15:45 22.38706 16.91218 33799 ft 456 kts 331°
2026-05-06 15:46 22.44447 16.88274 33797 ft 456 kts 331°
2026-05-06 15:46 22.50150 16.85345 33795 ft 456 kts 331°
2026-05-06 15:47 22.55884 16.82398 33792 ft 456 kts 331°
2026-05-06 15:47 22.61615 16.79450 33792 ft 456 kts 331°
2026-05-06 15:48 22.67352 16.76496 33791 ft 455 kts 331°
2026-05-06 15:48 22.73056 16.73556 33789 ft 455 kts 331°
2026-05-06 15:49 22.78779 16.70604 33795 ft 455 kts 331°
2026-05-06 15:49 22.84467 16.67667 33772 ft 454 kts 331°
2026-05-06 15:50 22.90193 16.64708 33787 ft 454 kts 331°
2026-05-06 15:50 22.95901 16.61755 33796 ft 454 kts 330°
2026-05-06 15:51 23.01571 16.58819 33779 ft 454 kts 330°
2026-05-06 15:51 23.07289 16.55855 33778 ft 454 kts 330°
2026-05-06 15:52 23.12961 16.52913 33775 ft 454 kts 330°
2026-05-06 15:52 23.18664 16.49951 33774 ft 454 kts 330°
2026-05-06 15:53 23.24389 16.46975 33777 ft 454 kts 330°
2026-05-06 15:53 23.30053 16.44029 33776 ft 454 kts 330°
2026-05-06 15:54 23.35760 16.41057 33778 ft 454 kts 330°
2026-05-06 15:54 23.41433 16.38100 33776 ft 454 kts 330°
2026-05-06 15:55 23.47133 16.35126 33776 ft 453 kts 330°
2026-05-06 15:55 23.52828 16.32152 33776 ft 453 kts 330°
2026-05-06 15:56 23.58518 16.29178 33782 ft 453 kts 330°
2026-05-06 15:56 23.64209 16.26200 33781 ft 453 kts 330°
2026-05-06 15:57 23.69863 16.23238 33781 ft 453 kts 330°
2026-05-06 15:57 23.75546 16.20259 33778 ft 452 kts 330°
2026-05-06 15:58 23.81218 16.17282 33783 ft 452 kts 330°
2026-05-06 15:58 23.86890 16.14303 33786 ft 452 kts 330°
2026-05-06 15:59 23.92554 16.11325 33786 ft 451 kts 330°
2026-05-06 15:59 23.98191 16.08358 33786 ft 451 kts 330°
2026-05-06 16:00 24.03846 16.05379 33789 ft 450 kts 330°
2026-05-06 16:00 24.09493 16.02401 33791 ft 450 kts 330°
2026-05-06 16:01 24.15085 15.99449 33790 ft 449 kts 330°
2026-05-06 16:01 24.20715 15.96474 33792 ft 448 kts 329°
2026-05-06 16:02 24.26347 15.93495 33796 ft 448 kts 329°
2026-05-06 16:02 24.31933 15.90538 33793 ft 447 kts 329°
2026-05-06 16:03 24.37548 15.87562 33789 ft 447 kts 329°
2026-05-06 16:03 24.43125 15.84603 33786 ft 448 kts 329°
2026-05-06 16:04 24.48738 15.81621 33790 ft 447 kts 329°
2026-05-06 16:04 24.54343 15.78643 33795 ft 447 kts 329°
2026-05-06 16:05 24.59961 15.75654 33795 ft 448 kts 329°
2026-05-06 16:05 24.65539 15.72682 33797 ft 448 kts 329°
2026-05-06 16:06 24.71160 15.69685 33798 ft 448 kts 329°
2026-05-06 16:06 24.76780 15.66685 33804 ft 448 kts 329°
2026-05-06 16:07 24.82371 15.63698 33804 ft 448 kts 329°
2026-05-06 16:07 24.87989 15.60706 33811 ft 448 kts 329°
2026-05-06 16:08 24.93610 15.57721 33814 ft 448 kts 329°
2026-05-06 16:08 24.99229 15.54733 33819 ft 448 kts 329°
2026-05-06 16:09 25.04845 15.51742 33819 ft 449 kts 329°
2026-05-06 16:09 25.10480 15.48737 33813 ft 449 kts 329°
2026-05-06 16:10 25.15169 15.46234 33816 ft 449 kts 329°
2026-05-06 16:10 25.20764 15.43245 33814 ft 449 kts 329°
2026-05-06 16:11 25.26401 15.40230 33815 ft 449 kts 329°
2026-05-06 16:11 25.32028 15.37216 33811 ft 449 kts 329°
2026-05-06 16:12 25.37652 15.34202 33811 ft 449 kts 329°
2026-05-06 16:12 25.43273 15.31186 33805 ft 448 kts 329°
2026-05-06 16:13 25.48888 15.28170 33807 ft 448 kts 329°
2026-05-06 16:13 25.54476 15.25166 33805 ft 448 kts 329°
2026-05-06 16:14 25.60084 15.22147 33804 ft 448 kts 329°
2026-05-06 16:14 25.65688 15.19127 33797 ft 448 kts 329°
2026-05-06 16:15 25.71295 15.16104 33803 ft 448 kts 329°
2026-05-06 16:15 25.76854 15.13102 33795 ft 447 kts 329°
2026-05-06 16:16 25.82452 15.10076 33795 ft 447 kts 329°
2026-05-06 16:16 25.88049 15.07048 33793 ft 448 kts 329°
2026-05-06 16:17 25.93647 15.04016 33790 ft 448 kts 329°
2026-05-06 16:17 25.99243 15.00982 33795 ft 447 kts 329°
2026-05-06 16:18 26.04837 14.97945 33796 ft 447 kts 329°
2026-05-06 16:18 26.10430 14.94906 33795 ft 447 kts 329°
2026-05-06 16:19 26.16021 14.91865 33795 ft 447 kts 329°
2026-05-06 16:19 26.21605 14.88824 33796 ft 447 kts 329°
2026-05-06 16:20 26.27156 14.85797 33798 ft 447 kts 329°
2026-05-06 16:20 26.32747 14.82746 33797 ft 447 kts 329°
2026-05-06 16:21 26.38334 14.79694 33803 ft 447 kts 329°
2026-05-06 16:21 26.43916 14.76641 33800 ft 447 kts 329°
2026-05-06 16:22 26.49500 14.73584 33806 ft 447 kts 329°
2026-05-06 16:22 26.55056 14.70539 33803 ft 446 kts 329°
2026-05-06 16:23 26.60638 14.67476 33809 ft 446 kts 329°
2026-05-06 16:23 26.66208 14.64416 33808 ft 446 kts 329°
2026-05-06 16:24 26.71790 14.61346 33807 ft 446 kts 329°
2026-05-06 16:24 26.77357 14.58281 33799 ft 446 kts 329°
2026-05-06 16:25 26.82925 14.55212 33801 ft 446 kts 329°
2026-05-06 16:25 26.88455 14.52161 33813 ft 446 kts 329°
2026-05-06 16:26 26.94025 14.49084 33814 ft 446 kts 329°
2026-05-06 16:26 26.99820 14.46504 33825 ft 452 kts 338°
2026-05-06 16:27 27.05956 14.44959 33813 ft 458 kts 346°
2026-05-06 16:27 27.12282 14.44020 33818 ft 459 kts 347°
2026-05-06 16:28 27.18625 14.43125 33809 ft 459 kts 347°
2026-05-06 16:28 27.24966 14.42203 33818 ft 459 kts 346°
2026-05-06 16:29 27.31302 14.41259 33815 ft 459 kts 346°
2026-05-06 16:29 27.37580 14.40316 33816 ft 457 kts 347°
2026-05-06 16:30 27.42820 14.39528 33811 ft 456 kts 347°
2026-05-06 16:30 27.50169 14.38421 33812 ft 454 kts 347°
2026-05-06 16:31 27.56437 14.37477 33822 ft 453 kts 347°
2026-05-06 16:31 27.62672 14.36536 33817 ft 453 kts 347°
2026-05-06 16:32 27.68931 14.35591 33820 ft 454 kts 347°
2026-05-06 16:32 27.75203 14.34642 33823 ft 454 kts 347°
2026-05-06 16:33 27.81446 14.33697 33830 ft 455 kts 347°
2026-05-06 16:34 27.90868 14.32269 33834 ft 455 kts 347°
2026-05-06 16:34 27.97120 14.31320 33840 ft 456 kts 347°
2026-05-06 16:35 28.03427 14.30362 33838 ft 456 kts 347°
2026-05-06 16:35 28.09736 14.29402 33838 ft 457 kts 347°
2026-05-06 16:36 28.16001 14.28448 33841 ft 457 kts 347°
2026-05-06 16:36 28.22320 14.27485 33840 ft 457 kts 347°
2026-05-06 16:37 28.28625 14.26522 33841 ft 457 kts 347°
2026-05-06 16:37 28.34950 14.25555 33836 ft 457 kts 347°
2026-05-06 16:38 28.41219 14.24596 33838 ft 457 kts 347°
2026-05-06 16:38 28.47540 14.23627 33840 ft 457 kts 347°
2026-05-06 16:39 28.53865 14.22657 33834 ft 457 kts 347°
2026-05-06 16:39 28.60148 14.21692 33838 ft 457 kts 347°
2026-05-06 16:40 28.66457 14.20722 33831 ft 457 kts 347°
2026-05-06 16:40 28.72765 14.19751 33828 ft 457 kts 347°
2026-05-06 16:41 28.79066 14.18780 33815 ft 457 kts 347°
2026-05-06 16:41 28.85328 14.17813 33829 ft 456 kts 347°
2026-05-06 16:42 28.91627 14.16839 33814 ft 456 kts 347°
2026-05-06 16:42 28.97921 14.15866 33819 ft 456 kts 347°
2026-05-06 16:43 29.04215 14.14891 33824 ft 456 kts 347°
2026-05-06 16:43 29.10507 14.13914 33816 ft 456 kts 347°
2026-05-06 16:44 29.16797 14.12938 33814 ft 456 kts 346°
2026-05-06 16:44 29.23053 14.11965 33812 ft 456 kts 346°
2026-05-06 16:45 29.29351 14.10985 33817 ft 456 kts 346°
2026-05-06 16:45 29.35643 14.10004 33814 ft 456 kts 346°
2026-05-06 16:46 29.41886 14.09030 33814 ft 455 kts 346°
2026-05-06 16:46 29.48182 14.08046 33813 ft 456 kts 346°
2026-05-06 16:47 29.54467 14.07062 33807 ft 456 kts 346°
2026-05-06 16:47 29.60726 14.06082 33812 ft 455 kts 346°
2026-05-06 16:48 29.67019 14.05095 33804 ft 455 kts 346°
2026-05-06 16:48 29.73303 14.04108 33808 ft 455 kts 346°
2026-05-06 16:49 29.79544 14.03126 33804 ft 455 kts 346°
2026-05-06 16:49 29.85828 14.02137 33797 ft 455 kts 346°
2026-05-06 16:50 29.92109 14.01146 33800 ft 454 kts 346°
2026-05-06 16:50 29.98376 14.00157 33802 ft 454 kts 346°
2026-05-06 16:51 30.04605 13.99175 33797 ft 453 kts 346°
2026-05-06 16:51 30.10860 13.98190 33798 ft 453 kts 346°
2026-05-06 16:52 30.17098 13.97206 33797 ft 452 kts 346°
2026-05-06 16:52 30.23333 13.96220 33792 ft 451 kts 346°
2026-05-06 16:53 30.29567 13.95234 33791 ft 451 kts 346°
2026-05-06 16:53 30.35755 13.94253 33783 ft 451 kts 346°
2026-05-06 16:54 30.41980 13.93266 33788 ft 450 kts 346°
2026-05-06 16:54 30.48152 13.92285 33775 ft 450 kts 346°
2026-05-06 16:55 30.54357 13.91298 33778 ft 449 kts 346°
2026-05-06 16:55 30.60549 13.90312 33778 ft 448 kts 346°
2026-05-06 16:56 30.65700 13.89490 33775 ft 448 kts 345°
2026-05-06 16:56 30.71877 13.88504 33772 ft 448 kts 345°
2026-05-06 16:57 30.79074 13.87353 33773 ft 448 kts 345°
2026-05-06 16:57 30.84210 13.86531 33777 ft 448 kts 345°
2026-05-06 16:58 30.90416 13.85536 33775 ft 448 kts 345°
2026-05-06 16:58 30.96568 13.84549 33775 ft 448 kts 345°
2026-05-06 16:59 31.02766 13.83553 33774 ft 448 kts 345°
2026-05-06 16:59 31.08918 13.82563 33775 ft 448 kts 345°
2026-05-06 17:00 31.15097 13.81568 33777 ft 448 kts 345°
2026-05-06 17:00 31.21278 13.80571 33777 ft 448 kts 345°
2026-05-06 17:01 31.27454 13.79572 33779 ft 448 kts 345°
2026-05-06 17:01 31.33588 13.78581 33793 ft 447 kts 345°
2026-05-06 17:02 31.39765 13.77580 33784 ft 447 kts 344°
2026-05-06 17:02 31.45951 13.76576 33786 ft 448 kts 344°
2026-05-06 17:03 31.52094 13.75579 33790 ft 449 kts 344°
2026-05-06 17:03 31.58278 13.74573 33795 ft 449 kts 344°
2026-05-06 17:04 31.64471 13.73565 33793 ft 449 kts 344°
2026-05-06 17:04 31.70671 13.72554 33800 ft 449 kts 344°
2026-05-06 17:05 31.76826 13.71549 33810 ft 449 kts 343°
2026-05-06 17:05 31.83018 13.70537 33799 ft 448 kts 343°
2026-05-06 17:06 31.89193 13.69527 33802 ft 447 kts 343°
2026-05-06 17:06 31.95341 13.68520 33803 ft 445 kts 343°
2026-05-06 17:07 32.01427 13.67521 33796 ft 443 kts 343°
2026-05-06 17:07 32.07537 13.66517 33792 ft 441 kts 343°
2026-05-06 17:08 32.13577 13.65522 33785 ft 440 kts 343°
2026-05-06 17:08 32.19640 13.64522 33790 ft 438 kts 343°
2026-05-06 17:09 32.25692 13.63522 33782 ft 438 kts 343°
2026-05-06 17:09 32.31702 13.62528 33774 ft 438 kts 343°
2026-05-06 17:10 32.37750 13.61527 33774 ft 438 kts 343°
2026-05-06 17:10 32.43796 13.60526 33764 ft 438 kts 343°
2026-05-06 17:11 32.49815 13.59529 33757 ft 439 kts 343°
2026-05-06 17:11 32.55875 13.58523 33758 ft 440 kts 343°
2026-05-06 17:12 32.61949 13.57513 33757 ft 440 kts 343°
2026-05-06 17:12 32.67985 13.56509 33748 ft 440 kts 343°
2026-05-06 17:13 32.74066 13.55496 33747 ft 441 kts 343°
2026-05-06 17:13 32.80139 13.54482 33750 ft 441 kts 342°
2026-05-06 17:14 32.86218 13.53466 33747 ft 441 kts 342°
2026-05-06 17:14 32.92283 13.52410 33750 ft 439 kts 341°
2026-05-06 17:15 32.98301 13.51227 33759 ft 446 kts 343°
2026-05-06 17:15 33.04522 13.49988 33767 ft 459 kts 343°
2026-05-06 17:16 33.10893 13.48743 33763 ft 465 kts 343°
2026-05-06 17:16 33.17263 13.47512 33760 ft 465 kts 343°
2026-05-06 17:17 33.23654 13.46271 33756 ft 464 kts 343°
2026-05-06 17:17 33.30036 13.45026 33755 ft 463 kts 343°
2026-05-06 17:18 33.36356 13.43790 33759 ft 461 kts 343°
2026-05-06 17:18 33.42686 13.42551 33760 ft 460 kts 343°
2026-05-06 17:19 33.49008 13.41311 33760 ft 459 kts 343°
2026-05-06 17:19 33.55273 13.40081 33767 ft 459 kts 343°
2026-05-06 17:20 33.61584 13.38840 33763 ft 459 kts 343°
2026-05-06 17:20 33.67891 13.37597 33767 ft 459 kts 343°
2026-05-06 17:21 33.74216 13.36348 33766 ft 460 kts 343°
2026-05-06 17:21 33.80519 13.35103 33769 ft 461 kts 343°
2026-05-06 17:22 33.86873 13.33846 33770 ft 462 kts 343°
2026-05-06 17:22 33.93239 13.32584 33772 ft 463 kts 343°
2026-05-06 17:23 33.99566 13.31328 33773 ft 463 kts 343°
2026-05-06 17:23 34.05940 13.30062 33772 ft 464 kts 343°
2026-05-06 17:24 34.12322 13.28791 33768 ft 464 kts 343°
2026-05-06 17:24 34.18698 13.27520 33771 ft 464 kts 343°
2026-05-06 17:25 34.25032 13.26255 33773 ft 464 kts 343°
2026-05-06 17:25 34.31406 13.24983 33777 ft 464 kts 343°
2026-05-06 17:26 34.37921 13.24410 33784 ft 473 kts 351°
2026-05-06 17:26 34.44534 13.24343 33785 ft 474 kts 352°
2026-05-06 17:27 34.51094 13.24279 33786 ft 474 kts 351°
2026-05-06 17:27 34.57699 13.24180 33781 ft 474 kts 351°
2026-05-06 17:28 34.64309 13.24064 33778 ft 474 kts 351°
2026-05-06 17:28 34.70884 13.23947 33781 ft 475 kts 351°
2026-05-06 17:29 34.77503 13.23831 33793 ft 475 kts 351°
2026-05-06 17:29 34.84133 13.23714 33790 ft 475 kts 351°
2026-05-06 17:30 34.90725 13.23599 33798 ft 476 kts 351°
2026-05-06 17:30 34.97352 13.23483 33798 ft 476 kts 351°
2026-05-06 17:31 35.03985 13.23366 33801 ft 476 kts 351°
2026-05-06 17:31 35.10569 13.23250 33806 ft 476 kts 352°
2026-05-06 17:32 35.17214 13.23133 33809 ft 476 kts 351°
2026-05-06 17:32 35.23829 13.23016 33813 ft 476 kts 352°
2026-05-06 17:33 35.30409 13.22900 33812 ft 475 kts 352°
2026-05-06 17:33 35.37022 13.22783 33816 ft 475 kts 352°
2026-05-06 17:34 35.43641 13.22665 33817 ft 474 kts 352°
2026-05-06 17:34 35.50232 13.22543 33819 ft 473 kts 351°
2026-05-06 17:35 35.56702 13.22413 33822 ft 456 kts 348°
2026-05-06 17:35 35.62979 13.22271 33821 ft 448 kts 347°
2026-05-06 17:36 35.72359 13.22058 33828 ft 453 kts 348°
2026-05-06 17:36 35.78696 13.21963 33831 ft 455 kts 348°
2026-05-06 17:37 35.85025 13.21875 33845 ft 457 kts 348°
2026-05-06 17:37 35.91408 13.21780 33834 ft 459 kts 348°
2026-05-06 17:38 35.97801 13.21680 33843 ft 459 kts 348°
2026-05-06 17:38 36.04159 13.21514 33845 ft 459 kts 348°
2026-05-06 17:39 36.10556 13.21376 33849 ft 460 kts 348°
2026-05-06 17:39 36.16958 13.21270 33851 ft 460 kts 349°
2026-05-06 17:40 36.23376 13.21156 33855 ft 461 kts 349°
2026-05-06 17:40 36.29769 13.21040 33862 ft 462 kts 349°
2026-05-06 17:41 36.36218 13.20928 33863 ft 463 kts 349°
2026-05-06 17:41 36.42646 13.20820 33867 ft 465 kts 350°
2026-05-06 17:42 36.49110 13.20571 33866 ft 461 kts 346°
2026-05-06 17:42 36.55344 13.19147 33876 ft 452 kts 338°
2026-05-06 17:43 36.61426 13.17209 33883 ft 454 kts 338°
2026-05-06 17:43 36.67574 13.15251 33879 ft 457 kts 338°
2026-05-06 17:44 36.73762 13.13305 33884 ft 459 kts 338°
2026-05-06 17:44 36.79953 13.11370 33889 ft 462 kts 339°
2026-05-06 17:45 36.86203 13.09416 33892 ft 464 kts 339°
2026-05-06 17:45 36.92490 13.07448 33892 ft 466 kts 339°
2026-05-06 17:46 36.98756 13.05481 33896 ft 467 kts 339°
2026-05-06 17:46 37.04020 13.03826 33899 ft 469 kts 339°
2026-05-06 17:47 37.10366 13.01828 33903 ft 470 kts 339°
2026-05-06 17:47 37.16744 12.99816 33906 ft 472 kts 340°
2026-05-06 17:48 37.23103 12.97807 33908 ft 474 kts 340°
2026-05-06 17:48 37.29514 12.95777 33907 ft 476 kts 340°
2026-05-06 17:49 37.35956 12.93735 33910 ft 478 kts 340°
2026-05-06 17:49 37.42385 12.91692 33920 ft 480 kts 341°
2026-05-06 17:50 37.48896 12.89620 33927 ft 482 kts 341°
2026-05-06 17:50 37.55414 12.87542 33928 ft 484 kts 341°
2026-05-06 17:51 37.61930 12.85462 33931 ft 486 kts 341°
2026-05-06 17:51 37.68502 12.83359 33925 ft 488 kts 341°
2026-05-06 17:52 37.75095 12.81246 33951 ft 489 kts 341°
2026-05-06 17:52 37.81707 12.79123 33938 ft 491 kts 341°
2026-05-06 17:53 37.88340 12.76989 33949 ft 492 kts 341°
2026-05-06 17:53 37.94938 12.74862 33940 ft 492 kts 342°
2026-05-06 17:54 38.01594 12.72713 33944 ft 492 kts 342°
2026-05-06 17:54 38.08230 12.70566 33950 ft 492 kts 342°
2026-05-06 17:55 38.14881 12.68410 33952 ft 493 kts 342°
2026-05-06 17:55 38.21490 12.66264 33960 ft 493 kts 342°
2026-05-06 17:56 38.28149 12.64097 33963 ft 493 kts 342°
2026-05-06 17:56 38.34804 12.61928 33963 ft 494 kts 342°
2026-05-06 17:57 38.41440 12.59760 33968 ft 494 kts 342°
2026-05-06 17:57 38.48107 12.57578 33966 ft 495 kts 342°
2026-05-06 17:58 38.54798 12.55385 33976 ft 496 kts 342°
2026-05-06 17:58 38.61496 12.53185 33976 ft 497 kts 342°
2026-05-06 17:59 38.68171 12.50988 33975 ft 497 kts 342°
2026-05-06 17:59 38.74885 12.48774 33975 ft 498 kts 342°
2026-05-06 18:00 38.81610 12.46552 33985 ft 498 kts 342°
2026-05-06 18:00 38.88274 12.44175 33992 ft 495 kts 336°
2026-05-06 18:01 38.94666 12.40930 33987 ft 493 kts 334°
2026-05-06 18:01 39.01016 12.37560 33982 ft 493 kts 334°
2026-05-06 18:02 39.07333 12.34238 33997 ft 494 kts 334°
2026-05-06 18:02 39.13712 12.30916 33981 ft 494 kts 334°
2026-05-06 18:03 39.20099 12.27597 33990 ft 495 kts 334°
2026-05-06 18:03 39.26497 12.24264 33996 ft 496 kts 334°
2026-05-06 18:04 39.32873 12.20935 34000 ft 497 kts 334°
2026-05-06 18:04 39.39303 12.17569 34002 ft 498 kts 334°
2026-05-06 18:05 39.45750 12.14188 34000 ft 500 kts 334°
2026-05-06 18:05 39.52163 12.10818 34004 ft 501 kts 334°
2026-05-06 18:06 39.58653 12.07401 34003 ft 501 kts 334°
2026-05-06 18:06 39.65082 12.04010 34002 ft 501 kts 334°
2026-05-06 18:07 39.71550 12.00591 33998 ft 501 kts 333°
2026-05-06 18:07 39.78012 11.97169 33998 ft 500 kts 333°
2026-05-06 18:08 39.84465 11.93743 33994 ft 500 kts 333°
2026-05-06 18:08 39.90903 11.90319 33991 ft 499 kts 333°
2026-05-06 18:09 39.97290 11.86915 33990 ft 499 kts 333°
2026-05-06 18:09 40.03714 11.83484 33991 ft 498 kts 333°
2026-05-06 18:10 40.10132 11.80050 33992 ft 497 kts 333°
2026-05-06 18:10 40.16541 11.76613 33988 ft 497 kts 332°
2026-05-06 18:11 40.22910 11.73190 33989 ft 497 kts 332°
2026-05-06 18:11 40.29329 11.69733 33988 ft 497 kts 332°
2026-05-06 18:12 40.35703 11.66294 33987 ft 497 kts 332°
2026-05-06 18:12 40.42112 11.62829 33990 ft 497 kts 332°
2026-05-06 18:13 40.48479 11.59380 33982 ft 498 kts 332°
2026-05-06 18:13 40.54884 11.55902 33980 ft 498 kts 331°
2026-05-06 18:14 40.61302 11.52410 33980 ft 498 kts 331°
2026-05-06 18:14 40.67685 11.48930 33976 ft 499 kts 331°
2026-05-06 18:15 40.74118 11.45414 33975 ft 500 kts 331°
2026-05-06 18:15 40.80560 11.41888 33970 ft 501 kts 331°
2026-05-06 18:16 40.87202 11.38871 33971 ft 511 kts 340°
2026-05-06 18:16 40.94152 11.36783 33968 ft 513 kts 342°
2026-05-06 18:17 41.01094 11.34771 33961 ft 514 kts 341°
2026-05-06 18:17 41.08073 11.32687 33965 ft 514 kts 341°
2026-05-06 18:18 41.15066 11.30553 33967 ft 515 kts 341°
2026-05-06 18:18 41.22019 11.28417 33959 ft 516 kts 341°
2026-05-06 18:19 41.29040 11.26259 33961 ft 516 kts 341°
2026-05-06 18:19 41.36003 11.24117 33960 ft 516 kts 341°
2026-05-06 18:20 41.43009 11.21957 33959 ft 516 kts 341°
2026-05-06 18:20 41.50013 11.19794 33954 ft 516 kts 340°
2026-05-06 18:21 41.56972 11.17639 33955 ft 515 kts 340°
2026-05-06 18:21 41.63961 11.15470 33953 ft 515 kts 340°
2026-05-06 18:22 41.70949 11.13297 33956 ft 514 kts 340°
2026-05-06 18:22 41.77877 11.11137 33954 ft 513 kts 340°
2026-05-06 18:23 41.84838 11.08962 33953 ft 512 kts 340°
2026-05-06 18:23 41.91775 11.06790 33943 ft 511 kts 340°
2026-05-06 18:24 41.98713 11.04612 33944 ft 510 kts 340°
2026-05-06 18:24 42.05578 11.02453 33954 ft 509 kts 340°
2026-05-06 18:25 42.12484 11.00275 33954 ft 509 kts 340°
2026-05-06 18:25 42.19341 10.98108 33951 ft 508 kts 340°
2026-05-06 18:26 42.26240 10.95923 33953 ft 508 kts 340°
2026-05-06 18:26 42.33098 10.93619 33946 ft 504 kts 335°
2026-05-06 18:27 42.39468 10.89929 33955 ft 493 kts 325°
2026-05-06 18:27 42.45189 10.85056 33938 ft 487 kts 318°
2026-05-06 18:28 42.50748 10.79805 33945 ft 487 kts 317°
2026-05-06 18:28 42.56325 10.74535 33949 ft 489 kts 318°
2026-05-06 18:29 42.61913 10.69323 33950 ft 490 kts 318°
2026-05-06 18:29 42.67548 10.64094 33947 ft 491 kts 319°
2026-05-06 18:30 42.73186 10.58855 33943 ft 491 kts 319°
2026-05-06 18:30 42.78829 10.53595 33944 ft 491 kts 318°
2026-05-06 18:31 42.84424 10.48366 33934 ft 491 kts 318°
2026-05-06 18:31 42.90061 10.43085 33935 ft 490 kts 318°
2026-05-06 18:32 42.95679 10.37811 33941 ft 490 kts 318°
2026-05-06 18:32 43.01269 10.32550 33946 ft 489 kts 318°
2026-05-06 18:33 43.06884 10.27254 33945 ft 489 kts 318°
2026-05-06 18:33 43.12489 10.21955 33930 ft 489 kts 318°
2026-05-06 18:34 43.18049 10.16687 33937 ft 488 kts 318°
2026-05-06 18:34 43.23645 10.11373 33940 ft 488 kts 318°
2026-05-06 18:35 43.28291 10.06952 33940 ft 488 kts 318°
2026-05-06 18:35 43.33876 10.01626 33938 ft 489 kts 318°
2026-05-06 18:36 43.39460 9.96288 33935 ft 489 kts 318°
2026-05-06 18:36 43.45015 9.90967 33936 ft 489 kts 317°
2026-05-06 18:37 43.50608 9.85597 33938 ft 489 kts 317°
2026-05-06 18:37 43.56198 9.80217 33939 ft 489 kts 317°
2026-05-06 18:38 43.61755 9.74856 33936 ft 490 kts 317°
2026-05-06 18:38 43.67352 9.69444 33934 ft 490 kts 317°
2026-05-06 18:39 43.72942 9.64027 33937 ft 490 kts 316°
2026-05-06 18:40 43.81495 9.56324 33726 ft 489 kts 322°
2026-05-06 18:40 43.84453 9.54058 33241 ft 483 kts 323°
2026-05-06 18:40 43.87406 9.51802 32292 ft 486 kts 323°
2026-05-06 18:40 43.90352 9.49515 31207 ft 493 kts 322°
2026-05-06 18:41 43.93362 9.47149 30126 ft 499 kts 322°
2026-05-06 18:41 43.96437 9.44857 29207 ft 503 kts 327°
2026-05-06 18:41 43.99658 9.42962 28594 ft 502 kts 332°
2026-05-06 18:41 44.02983 9.41474 28051 ft 500 kts 339°
2026-05-06 18:42 44.06350 9.40344 27503 ft 495 kts 340°
2026-05-06 18:42 44.09695 9.39282 26907 ft 491 kts 341°
2026-05-06 18:42 44.12978 9.38249 26323 ft 486 kts 341°
2026-05-06 18:42 44.16263 9.37203 25748 ft 482 kts 340°
2026-05-06 18:43 44.19515 9.36149 25185 ft 477 kts 340°
2026-05-06 18:43 44.22735 9.35090 24652 ft 473 kts 340°
2026-05-06 18:43 44.25915 9.34034 24110 ft 468 kts 340°
2026-05-06 18:43 44.29074 9.32981 23590 ft 464 kts 340°
2026-05-06 18:44 44.32206 9.31934 22984 ft 461 kts 340°
2026-05-06 18:44 44.35316 9.30894 22416 ft 456 kts 340°
2026-05-06 18:44 44.38350 9.29879 21911 ft 451 kts 340°
2026-05-06 18:44 44.41389 9.28862 21373 ft 447 kts 340°
2026-05-06 18:45 44.44398 9.27855 20877 ft 442 kts 341°
2026-05-06 18:45 44.47373 9.26859 20351 ft 439 kts 341°
2026-05-06 18:45 44.50335 9.25862 19791 ft 436 kts 341°
2026-05-06 18:45 44.53273 9.24875 19343 ft 431 kts 341°
2026-05-06 18:46 44.56184 9.23897 18873 ft 425 kts 341°
2026-05-06 18:46 44.59050 9.22930 18448 ft 421 kts 341°
2026-05-06 18:46 44.61860 9.21980 17907 ft 419 kts 341°
2026-05-06 18:46 44.64685 9.21028 17367 ft 415 kts 342°
2026-05-06 18:47 44.67495 9.20080 16828 ft 413 kts 342°
2026-05-06 18:47 44.70281 9.19141 16349 ft 409 kts 342°
2026-05-06 18:47 44.73037 9.18175 15902 ft 404 kts 340°
2026-05-06 18:47 44.75654 9.16829 15446 ft 397 kts 332°
2026-05-06 18:48 44.78107 9.15092 14962 ft 392 kts 326°
2026-05-06 18:48 44.80384 9.13002 14462 ft 388 kts 321°
2026-05-06 18:48 44.82559 9.10829 13939 ft 387 kts 321°
2026-05-06 18:48 44.84748 9.08625 13495 ft 385 kts 321°
2026-05-06 18:49 44.86928 9.06446 13023 ft 382 kts 321°
2026-05-06 18:49 44.89100 9.04290 12546 ft 379 kts 322°
2026-05-06 18:49 44.91224 9.02189 12097 ft 375 kts 322°
2026-05-06 18:49 44.93311 9.00131 11896 ft 350 kts 322°
2026-05-06 18:50 44.95247 8.98253 11694 ft 323 kts 325°
2026-05-06 18:50 44.97181 8.96830 11425 ft 303 kts 333°
2026-05-06 18:50 44.99147 8.95862 10981 ft 296 kts 341°
2026-05-06 18:50 45.01106 8.95131 10745 ft 293 kts 342°
2026-05-06 18:51 45.03072 8.94429 10522 ft 289 kts 342°
2026-05-06 18:51 45.05015 8.93725 10252 ft 287 kts 342°
2026-05-06 18:51 45.06945 8.93010 9955 ft 286 kts 342°
2026-05-06 18:51 45.08868 8.92284 9572 ft 286 kts 342°
2026-05-06 18:52 45.10786 8.91554 9237 ft 282 kts 342°
2026-05-06 18:52 45.12678 8.90831 8906 ft 278 kts 342°
2026-05-06 18:52 45.14510 8.90128 8591 ft 274 kts 341°
2026-05-06 18:52 45.16331 8.89408 8309 ft 270 kts 341°
2026-05-06 18:53 45.18146 8.88679 8029 ft 273 kts 341°
2026-05-06 18:53 45.19998 8.87932 7745 ft 279 kts 341°
2026-05-06 18:53 45.21875 8.87177 7434 ft 280 kts 341°
2026-05-06 18:53 45.23741 8.86428 7125 ft 277 kts 341°
2026-05-06 18:54 45.25585 8.85689 6874 ft 275 kts 341°
2026-05-06 18:54 45.26187 8.85446 6786 ft 275 kts 342°
2026-05-06 18:54 45.27798 8.84800 6710 ft 271 kts 341°
2026-05-06 18:54 45.29646 8.84055 6371 ft 280 kts 342°
2026-05-06 18:55 45.31534 8.83295 6050 ft 283 kts 342°
2026-05-06 18:55 45.33431 8.82531 5720 ft 281 kts 342°
2026-05-06 18:55 45.35285 8.81787 5575 ft 269 kts 342°
2026-05-06 18:55 45.37014 8.81092 5459 ft 255 kts 342°
2026-05-06 18:56 45.38685 8.80419 5302 ft 244 kts 342°
2026-05-06 18:56 45.40294 8.79755 5029 ft 238 kts 342°
2026-05-06 18:56 45.41883 8.79190 4716 ft 234 kts 346°
2026-05-06 18:56 45.43459 8.78732 4379 ft 226 kts 348°
2026-05-06 18:57 45.44957 8.78322 4005 ft 211 kts 348°
2026-05-06 18:57 45.46343 8.77944 3744 ft 195 kts 348°
2026-05-06 18:57 45.47624 8.77594 3498 ft 180 kts 348°
2026-05-06 18:57 45.48837 8.77259 3260 ft 174 kts 348°
2026-05-06 18:58 45.49988 8.76942 3061 ft 167 kts 348°
2026-05-06 18:58 45.51125 8.76629 2817 ft 167 kts 348°
2026-05-06 18:58 45.52269 8.76314 2595 ft 166 kts 349°
2026-05-06 18:58 45.53397 8.76003 2376 ft 164 kts 349°
2026-05-06 18:59 45.54503 8.75698 2148 ft 160 kts 349°
2026-05-06 18:59 45.55593 8.75398 1929 ft 159 kts 350°
2026-05-06 18:59 45.56662 8.75104 1747 ft 158 kts 350°
2026-05-06 18:59 45.57735 8.74808 1535 ft 156 kts 351°
2026-05-06 19:00 45.58816 8.74516 1297 ft 157 kts 350°
2026-05-06 19:00 45.59891 8.74211 1083 ft 158 kts 351°
2026-05-06 19:00 45.60972 8.73900 899 ft 158 kts 351°
2026-05-06 19:00 45.62044 8.73614 747 ft 148 kts 351°
2026-05-06 19:01 45.62933 8.73374 740 ft 107 kts 349°
2026-05-06 19:01 45.63418 8.73239 740 ft 42 kts 349°
2026-05-06 19:01 45.63612 8.73159 741 ft 28 kts 334°
2026-05-06 19:01 45.63771 8.72994 739 ft 28 kts 311°
2026-05-06 19:02 45.63828 8.72885 740 ft 6 kts 305°
2026-05-06 19:02 45.63853 8.72835 740 ft 6 kts 306°
2026-05-06 19:02 45.63879 8.72785 737 ft 6 kts 307°
2026-05-06 19:02 45.63904 8.72734 739 ft 6 kts 303°
2026-05-06 19:03 45.63926 8.72680 739 ft 6 kts 300°
2026-05-06 19:03 45.63949 8.72617 740 ft 11 kts 293°
2026-05-06 19:03 45.63946 8.72481 740 ft 15 kts 258°
2026-05-06 19:03 45.63926 8.72337 740 ft 15 kts 259°
2026-05-06 19:04 45.63916 8.72192 740 ft 15 kts 266°
2026-05-06 19:04 45.63911 8.72045 739 ft 15 kts 266°
2026-05-06 19:04 45.63893 8.71901 739 ft 15 kts 246°
2026-05-06 19:04 45.63812 8.71826 738 ft 15 kts 180°
2026-05-06 19:05 45.63710 8.71849 738 ft 15 kts 170°
2026-05-06 19:05 45.63610 8.71878 740 ft 15 kts 168°
2026-05-06 19:05 45.63509 8.71905 740 ft 15 kts 169°
2026-05-06 19:05 45.63413 8.71931 739 ft 10 kts 168°
2026-05-06 19:06 45.63347 8.71950 741 ft 10 kts 168°
2026-05-06 19:06 45.63273 8.71970 738 ft 16 kts 169°
2026-05-06 19:06 45.63149 8.72004 739 ft 19 kts 169°
2026-05-06 19:06 45.63021 8.72040 740 ft 19 kts 169°
2026-05-06 19:07 45.62892 8.72075 740 ft 19 kts 169°
2026-05-06 19:07 45.62807 8.72098 739 ft 19 kts 169°
2026-05-06 19:07 45.62635 8.72146 741 ft 19 kts 169°
2026-05-06 19:07 45.62507 8.72181 739 ft 19 kts 169°
2026-05-06 19:08 45.62380 8.72216 740 ft 19 kts 169°
2026-05-06 19:08 45.62251 8.72252 739 ft 19 kts 169°
2026-05-06 19:08 45.62122 8.72287 739 ft 19 kts 169°
2026-05-06 19:08 45.61994 8.72323 738 ft 19 kts 169°
2026-05-06 19:09 45.61866 8.72359 740 ft 19 kts 169°
2026-05-06 19:09 45.61737 8.72394 741 ft 19 kts 169°
2026-05-06 19:09 45.61609 8.72430 739 ft 19 kts 169°
2026-05-06 19:09 45.61490 8.72462 739 ft 14 kts 169°
2026-05-06 19:10 45.61409 8.72421 739 ft 14 kts 241°
2026-05-06 19:10 45.61386 8.72287 738 ft 14 kts 259°
2026-05-06 19:10 45.61326 8.72199 738 ft 14 kts 183°
2026-05-06 19:10 45.61231 8.72222 739 ft 14 kts 169°
2026-05-06 19:11 45.61136 8.72249 739 ft 14 kts 169°
2026-05-06 19:11 45.61041 8.72275 740 ft 14 kts 169°
2026-05-06 19:11 45.60946 8.72302 741 ft 14 kts 169°
2026-05-06 19:11 45.60852 8.72327 739 ft 14 kts 174°
2026-05-06 19:12 45.60775 8.72257 741 ft 14 kts 238°
2026-05-06 19:12 45.60782 8.72143 738 ft 5 kts 272°
2026-05-06 19:12 45.60777 8.72094 739 ft 5 kts 256°
2026-05-06 19:12 45.60775 8.72084 739 ft 0 kts 255°